Flag for Canada Weather past 2 weeks in Burnaby, British Columbia, Canada

Now
45 °F

Passing clouds.


Feels Like: 40 °F
Forecast: 41 / 47 °F
Wind: 9 mph from Southwest

Location: Vancouver International Air-Port

Current Time: Dec 21, 2014 at 4:06:05 AM

Latest Report: Dec 21, 2014 at 3:00 AM


Visibility: 15 mi

Pressure: 29.63 "Hg

Humidity: 93%

Dew point: 43 °F

Location of BurnabyLocation

Historic Weather in Burnaby — Graph

°F

Burnaby temperature yesterday

Maximum temperature yesterday: 50 °F (at 10:50 PM)
Minimum temperature yesterday: 43 °F (at 9:00 AM)
Average temperature yesterday: 46 °F

Past Weeks' High & Low Weather Summary

 TemperatureHumidityPressure
High59 °F (Dec 9, 1:00 PM)100% (Dec 6, 2:00 AM)30.26 "Hg (Dec 6, 2:00 AM)
Low28 °F (Dec 15, 4:00 AM)66% (Dec 15, 1:00 PM)29.15 "Hg (Dec 11, 6:00 PM)
Average46 °F89%29.81 "Hg
* Reported Dec 6 2:00 AM — Dec 21 2:00 AM, Burnaby, Weather by CustomWeather, © 2014

Note: Actual official high and low records may vary slightly from our data, if they occured in-between our weather recording intervals... More about our weather records

Advertising

Burnaby weather history for previous 24 hours

 ConditionsComfort  
Time TempWeatherWind HumidityBarometerVisibility
2:00 AM
Dec 21
45 °FPassing clouds.12 mph100%29.58 "Hg15 mi
1:00 AM45 °FPassing clouds.12 mph93%29.50 "Hg15 mi
12:00 AM43 °FPassing clouds.6 mph100%29.44 "Hg15 mi
11:00 PM
Dec 20
48 °FOvercast.7 mph94%29.36 "Hg15 mi
10:50 PM50 °FMostly cloudy.9 mph94%29.35 "Hg15 mi
10:00 PM48 °FLight rain. Mostly cloudy.8 mph94%29.31 "Hg15 mi
9:00 PM48 °FMostly cloudy.12 mph94%29.31 "Hg15 mi
8:56 PM48 °FMostly cloudy.10 mph94%29.32 "Hg15 mi
8:00 PM46 °FLight rain. Overcast.8 mph100%29.32 "Hg12 mi
7:00 PM46 °FRain. Fog.13 mph93%29.33 "Hg4 mi
6:48 PM46 °FRain. Fog.13 mph93%29.33 "Hg4 mi
6:00 PM45 °FRain. Fog.12 mph100%29.35 "Hg4 mi
5:00 PM45 °FLight rain. Fog.14 mph100%29.36 "Hg6 mi
4:00 PM45 °FLight rain. Mostly cloudy.15 mph93%29.38 "Hg8 mi
3:00 PM45 °FLight rain. Fog.14 mph93%29.41 "Hg6 mi
2:00 PM45 °FLight rain. Fog.14 mph93%29.43 "Hg6 mi
1:00 PM45 °FLight rain. Fog.14 mph93%29.48 "Hg6 mi
12:00 PM46 °FLight rain. Mostly cloudy.12 mph87%29.51 "Hg15 mi
11:00 AM46 °FOvercast.12 mph82%29.56 "Hg15 mi
10:00 AM45 °FOvercast.16 mph87%29.59 "Hg15 mi
9:00 AM43 °FLight rain. Overcast.18 mph93%29.61 "Hg8 mi
8:00 AM45 °FLight rain. Fog.18 mph87%29.61 "Hg5 mi
7:00 AM45 °FLight rain. Overcast.17 mph87%29.62 "Hg8 mi
6:00 AM45 °FLight rain. Overcast.15 mph87%29.64 "Hg10 mi
5:00 AM45 °FLight rain. Overcast.14 mph87%29.65 "Hg12 mi
4:00 AM46 °FMostly cloudy.10 mph82%29.69 "Hg15 mi
Weather by CustomWeather, © 2014

See weather overviewHow to use our weather pages